Regional Weather Roundup
Issued by NWS Boston, MA

Current Version | Previous Version | Text Only | Print | Product List | Glossary Off
Versions: 1 2 3 4 5 6 7 8 9 10 11 12 13 14 15 16 17 18 19 20 21 22 23 24 25 26 27 28 29 30 31 32 33 34 35 36 37 38 39 40 41 42 43 44 45 46 47 48 49 50
322 ASUS41 KBOX 252010 RWRBOX REGIONAL WEATHER ROUNDUP NATIONAL WEATHER SERVICE TAUNTON MA 400 PM EDT TUE APR 25 2017 NOTE: "FAIR" INDICATES FEW OR NO CLOUDS BELOW 12,000 FEET WITH NO SIGNIFICANT WEATHER AND/OR OBSTRUCTIONS TO VISIBILITY. MAZALL-252100- EASTERN MASSACHUSETTS CITY SKY/WX TMP DP RH WIND PRES REMARKS BOSTON HVY RAIN 46 46 100 NE18G26 30.22F FOG BEVERLY LGT RAIN 45 44 97 NE13G22 30.23F FOG LAWRENCE LGT RAIN 47 43 86 NE15 30.25F FOG BEDFORD RAIN 46 42 86 NE13 30.21F FOG BLUE HILL N/A 44 42 93 NE18G29 30.17F NORWOOD LGT RAIN 47 45 93 NE14G22 30.20F FOG MARSHFIELD RAIN 46 46 100 VRB6G12 30.20F VSB 1 PLYMOUTH RAIN 47 45 93 NE9 30.17F FOG TAUNTON LGT RAIN 48 46 93 NE8 30.16F NEW BEDFORD LGT RAIN 50 48 93 NE10 30.14F FOG $$ MAZALL-252100- CAPE COD AND THE ISLANDS CITY SKY/WX TMP DP RH WIND PRES REMARKS FALMOUTH N/A 52 52 100 MISG 30.14 HYANNIS LGT RAIN 52 51 97 E16G33 30.11F CHATHAM LGT RAIN 51 50 96 E15G26 30.15F FOG PROVINCETOWN LGT RAIN 48 47 96 E14G22 30.18F NANTUCKET CLOUDY 51 48 89 E20G30 30.11F FOG MARTHAS VNYRD LGT RAIN 57 54 89 E26G38 30.10F $$ MAZALL-252100- CENTRAL AND WESTERN MASSACHUSETTS CITY SKY/WX TMP DP RH WIND PRES REMARKS WORCESTER LGT RAIN 44 42 93 NE14G22 30.17F FOG FITCHBURG RAIN 47 45 93 NE7 30.22F FOG ORANGE LGT RAIN 48 44 86 E13G22 30.18F SPRINGFIELD LGT RAIN 51 47 86 E13 30.14S WESTFIELD LGT RAIN 50 49 96 NE8 30.15S FOG NORTH ADAMS CLOUDY 51 44 77 E15G24 30.12F PITTSFIELD LGT RAIN 49 44 83 E8 30.10F $$ RIZALL-252100- RHODE ISLAND CITY SKY/WX TMP DP RH WIND PRES REMARKS PROVIDENCE LGT RAIN 50 49 96 NE15 30.15F NEWPORT LGT RAIN 50 50 100 NE10 30.12F BLOCK ISLAND LGT RAIN 49 49 100 NE15G21 30.09F FOG SMITHFIELD LGT RAIN 46 45 96 E7G21 30.16F WESTERLY LGT RAIN 52 50 93 NE10G21 30.10F $$ CTZALL-252100- CONNECTICUT CITY SKY/WX TMP DP RH WIND PRES REMARKS BRADLEY INTL RAIN 52 50 93 NE14 30.13S FOG HARTFORD LGT RAIN 53 50 89 NE12 30.10F BRIDGEPORT LGT RAIN 57 52 83 E15 30.04F DANBURY LGT RAIN 53 52 96 E12 30.04F GROTON LGT RAIN 54 50 86 E15 30.08S NEW HAVEN LGT RAIN 55 52 89 NE10 30.04F CHESTER DRIZZLE 52 52 100 E12G22 30.07F MERIDEN CLOUDY 55 51 86 NE9 30.07F WILLIMANTIC LGT RAIN 52 48 86 NE12 30.12F OXFORD DRIZZLE 52 46 82 NE13G23 30.06F FOG $$ MEZ002-015-021-024-NHZ003-005-008-011-012-014-VTZ005-008-252100- NORTHERN NEW ENGLAND CITY SKY/WX TMP DP RH WIND PRES REMARKS PORTLAND ME LGT RAIN 44 39 82 E14G25 30.33F BANGOR ME LGT RAIN 50 38 63 SE7 30.36F CONCORD NH LGT RAIN 47 43 86 NE6 30.25F MANCHESTER NH CLOUDY 46 42 86 NE14G21 30.23F NASHUA NH LGT RAIN 46 44 93 VRB6 30.25F FOG PORTSMOUTH NH LGT RAIN 44 41 92 NE12G22 30.26F VSB 1 JAFFREY NH LGT RAIN 46 45 96 VRB3 30.21F KEENE NH LGT RAIN 49 43 80 E8G16 30.20F BURLINGTON VT LGT RAIN 52 42 69 SE14G22 30.17F MT. WASHINGTON FRZ RAIN 30 30 100 SE41 N/A VSB 1/16WCI 13 $$ NYZ052-076-252100- EASTERN NEW YORK CITY SKY/WX TMP DP RH WIND PRES REMARKS ALBANY LGT RAIN 54 48 80 N6 30.11F NEW YORK CITY LGT RAIN 55 51 86 NE30G37 29.97F $$ ANZALL-252100- MARINE OBSERVATIONS STATION/POSITION TIME TEMP WIND PRES VSBY WAVE AIR SEA DIR/SP/G HT/PER (UTC) (F) (DEG/KT/KT) (MB) (MI) (FT/S) BOSTON BUOY 1850 45 46 40/ 16/ 19 1022.8 5/ 5 BUZZARDS BAY 1900 49 50/ 19/ 22 1020.3F NANTUCKET SOUND 1950 47 1019.6F 3/ 4 MASS BAY-STELLWA 1904 44 45 40/ 17/ 21 1023.3F 5/ 5 ISLE OF SHOALS 1900 43 40/ 22/ 25 1024.8F S OF BLOCK IS 1955 47 N/A 6/ 6 $$ ......................KEY......................... SKY/WX - SKY CONDITION/PRESENT WEATHER TMP - TEMPERATURE IN FAHRENHEIT DWPT - DEWPOINT IN FAHRENHEIT RH - RELATIVE HUMIDITY IN PERCENT WIND - DIRECTION AND SPEED IN MPH PRES - MEAN SEA LEVEL PRESSURE IN INCHES OF HG WCI - WIND CHILL INDEX VSB - VISIBILITY IN MILES HX - HEAT INDEX TC - TEMPERATURE IN CELSIUS VRB - VARIABLE WIND DIRECTION N/A - NOT AVAILABLE

USA.gov is the U.S. government's official web portal to all federal, state and local government web resources and services.